Emerado, ND

11:21 AM CST on December 05, 2016 (GMT -0600)
Grand Forks International

Weather History for KGFK - May, 2013

Change the Weather History Date:

Tuesday, May 21, 2013

  Actual Average Record
Temperature  
Mean Temperature 48 °F 56 °F  
Max Temperature 52 °F 70 °F 101 °F (1964)
Min Temperature 44 °F 43 °F 27 °F (2008)
Degree Days  
Heating Degree Days 17 9  
Month to date heating degree days 291 259  
Since 1 July heating degree days 9843 9337  
Cooling Degree Days 0 1  
Month to date cooling degree days 4 6  
Year to date cooling degree days 4 7  
Moisture  
Dew Point 45 °F    
Average Humidity 89    
Maximum Humidity 100    
Minimum Humidity 77    
Precipitation  
Precipitation 0.29 in 0.09 in 1.21 in (1992)
Month to date precipitation 3.60 1.72  
Year to date precipitation 6.98 4.76  
Snow  
Snow 0.00 in 0.00 in - ()
Month to date snowfall 0.0 0.1  
Since 1 July snowfall 50.2 47.4  
Snow Depth 0.00 in    
Sea Level Pressure  
Sea Level Pressure 29.78 in    
Wind  
Wind Speed 17 mph (NE)    
Max Wind Speed 28 mph    
Max Gust Speed 35 mph    
Visibility 8 miles    
Events Rain    
T = Trace of Precipitation, MM = Missing Value Source: NWS Daily Summary

Daily Weather History Graph

Daily Weather History Graph

Search for Another Location

Airport or City:

Trip Planner

Search our weather history database for the weather conditions in past years. The results will help you decide how hot, cold, wet, or windy it might be!

Date:

Astronomy

May. 21, 2013 Rise Set
Actual Time 5:42 AM CDT 9:08 PM CDT
Civil Twilight 5:04 AM CDT 9:46 PM CDT
Nautical Twilight 4:14 AM CDT 10:37 PM CDT
Astronomical Twilight 3:08 AM CDT 11:44 PM CDT
Moon 5:08 PM CDT (5/21) 3:29 AM CDT (5/21)
Length of Visible Light 16h 42m
Length of Day
15h 25m
Waxing Gibbous, 84% of the Moon is Illuminated
May 21
Waxing Gibbous
May 24
Full
May 31
Last Quarter
Jun 8
New
Jun 16
First Quarter

Hourly Weather History & Observations

Time (CDT) Temp. Windchill Dew Point Humidity Pressure Visibility Wind Dir Wind Speed Gust Speed Precip Events Conditions
12:53 AM 51.1 °F - 48.0 °F 89% 29.66 in 10.0 mi ENE 21.9 mph 31.1 mph N/A   Overcast
1:04 AM 51.8 °F - 46.4 °F 82% 29.65 in 10.0 mi NE 20.7 mph 31.1 mph N/A   Overcast
1:53 AM 50.0 °F - 46.9 °F 89% 29.68 in 10.0 mi NE 19.6 mph 29.9 mph N/A   Overcast
2:53 AM 48.9 °F - 46.9 °F 93% 29.69 in 6.0 mi NE 18.4 mph 28.8 mph 0.01 in Rain Light Rain
3:11 AM 48.2 °F - 46.4 °F 93% 29.68 in 9.0 mi NE 25.3 mph 33.4 mph 0.00 in Rain Rain
3:18 AM 48.2 °F - 46.4 °F 93% 29.68 in 7.0 mi NNE 19.6 mph 31.1 mph 0.01 in Rain Light Rain
3:37 AM 46.4 °F 39.0 °F 46.4 °F 100% 29.69 in 10.0 mi NNE 19.6 mph 25.3 mph 0.03 in Rain Light Rain
3:48 AM 46.4 °F 38.1 °F 44.6 °F 93% 29.69 in 7.0 mi NNE 24.2 mph 29.9 mph 0.04 in Rain Rain
3:53 AM 46.0 °F 38.3 °F 45.0 °F 96% 29.70 in 6.0 mi NNE 20.7 mph 28.8 mph 0.04 in Rain Rain
4:53 AM 45.0 °F 37.4 °F 44.1 °F 97% 29.72 in 3.0 mi NNE 18.4 mph - 0.04 in Rain Light Rain
5:53 AM 44.1 °F 35.9 °F 43.0 °F 96% 29.73 in 6.0 mi NNE 19.6 mph 26.5 mph 0.04 in Rain Light Rain
6:30 AM 44.6 °F 37.2 °F 42.8 °F 93% 29.73 in 2.0 mi NNE 17.3 mph - 0.04 in Rain Rain
6:41 AM 44.6 °F 37.4 °F 42.8 °F 93% 29.73 in 5.0 mi NNE 16.1 mph - 0.09 in Rain Light Rain
6:53 AM 44.1 °F 36.5 °F 43.0 °F 96% 29.75 in 5.0 mi NNE 17.3 mph - 0.10 in Rain Rain
7:53 AM 44.1 °F 35.9 °F 42.1 °F 93% 29.77 in 10.0 mi NNE 19.6 mph - 0.02 in Rain Light Rain
8:49 AM 44.6 °F 36.9 °F 42.8 °F 93% 29.76 in 3.0 mi NNE 18.4 mph 24.2 mph 0.01 in Rain Light Rain
8:53 AM 44.1 °F 36.8 °F 43.0 °F 96% 29.78 in 3.0 mi NNE 16.1 mph - 0.01 in Rain Light Rain
9:36 AM 44.6 °F 37.4 °F 42.8 °F 93% 29.76 in 10.0 mi NNE 16.1 mph - 0.00 in   Overcast
9:53 AM 45.0 °F 37.6 °F 43.0 °F 93% 29.78 in 10.0 mi NNE 17.3 mph - 0.00 in Rain Light Rain
10:53 AM 46.9 °F - 44.1 °F 90% 29.79 in 10.0 mi NNE 19.6 mph 25.3 mph N/A   Overcast
11:53 AM 48.0 °F - 44.1 °F 86% 29.80 in 10.0 mi NE 19.6 mph - N/A   Overcast
12:53 PM 48.9 °F - 45.0 °F 86% 29.81 in 10.0 mi NNE 15.0 mph 25.3 mph 0.00 in   Overcast
1:53 PM 48.9 °F - 46.0 °F 90% 29.81 in 6.0 mi NNE 19.6 mph - N/A   Overcast
2:53 PM 48.9 °F - 44.1 °F 83% 29.83 in 10.0 mi NE 17.3 mph 27.6 mph 0.00 in   Overcast
3:16 PM 50.0 °F - 44.6 °F 82% 29.81 in 10.0 mi NE 17.3 mph - N/A   Overcast
3:53 PM 50.0 °F - 44.1 °F 80% 29.84 in 10.0 mi NE 21.9 mph 28.8 mph N/A   Overcast
4:53 PM 50.0 °F - 45.0 °F 83% 29.85 in 10.0 mi NE 18.4 mph - N/A   Overcast
5:53 PM 50.0 °F - 46.9 °F 89% 29.86 in 6.0 mi NE 18.4 mph - 0.00 in Rain Rain
6:53 PM 51.1 °F - 46.9 °F 86% 29.87 in 10.0 mi NE 18.4 mph - 0.01 in   Overcast
7:53 PM 50.0 °F - 46.9 °F 89% 29.89 in 9.0 mi ENE 19.6 mph 25.3 mph 0.00 in Rain Light Rain
8:53 PM 51.1 °F - 46.0 °F 83% 29.89 in 10.0 mi East 16.1 mph 27.6 mph 0.01 in Rain Light Rain
9:53 PM 50.0 °F - 45.0 °F 83% 29.91 in 10.0 mi ENE 8.1 mph - 0.01 in   Mostly Cloudy
10:53 PM 52.0 °F - 44.1 °F 74% 29.91 in 10.0 mi NE 11.5 mph - N/A   Overcast
11:53 PM 51.1 °F - 44.1 °F 77% 29.91 in 10.0 mi NE 8.1 mph - 0.00 in Rain Light Rain